This demonstration page uses our WeatherBlox Daily Observations layout. Learn more.

Left ArrowRight Arrow

38.89511, -77.03637

Hourly Observations for May 16, 2017

Temp ( °F °C ) Dew Point ( °F °C ) Humidity (%) Winds ( mph kmh ) Pressure ( in mb ) Visibility ( mi km ) Precip ( " mm )
12:52 am 00:52 Mostly Clear 62 16.7 49 9.4 62 62 SE 5 7 30.01 1016 10 16 0.00 0.00
1:52 am 01:52 Mostly Clear 61 16.1 48 8.9 63 63 ESE 3 6 30.01 1016 10 16 0.00 0.00
2:52 am 02:52 Clear 59 15 48 8.9 67 67 NNE 7 11 30.02 1017 10 16 0.00 0.00
3:52 am 03:52 Clear 57 13.9 46 7.8 67 67 N 6 9 30.04 1017 10 16 0.00 0.00
4:52 am 04:52 Mostly Clear 56 13.3 47 8.3 72 72 VRB 3 6 30.04 1017 10 16 0.00 0.00
5:52 am 05:52 Mostly Cloudy 56 13.3 45 7.2 67 67 Calm 30.06 1018 10 16 0.00 0.00
6:52 am 06:52 Mostly Cloudy 58 14.4 48 8.9 70 70 Calm 30.07 1018 10 16 0.00 0.00
7:52 am 07:52 Cloudy 60 15.6 50 10 70 70 ESE 5 7 30.08 1019 10 16 0.00 0.00
8:52 am 08:52 Cloudy 63 17.2 52 11.1 68 68 SSE 3 6 30.10 1019 10 16 0.00 0.00
9:52 am 09:52 Cloudy 69 20.6 47 8.3 45 45 Calm 30.11 1020 10 16 0.00 0.00
10:52 am 10:52 Mostly Cloudy 71 21.7 50 10 47 47 SSE 6 9 30.10 1019 10 16 0.00 0.00
11:52 am 11:52 Partly Cloudy 73 22.8 49 9.4 43 43 SSE 7 11 30.09 1019 10 16 0.00 0.00
12:52 pm 12:52 Mostly Sunny 75 23.9 50 10 41 41 S 8 13 30.07 1018 10 16 0.00 0.00
1:52 pm 13:52 Mostly Sunny 77 25 50 10 39 39 S 12 19 30.06 1018 10 16 0.00 0.00
2:52 pm 14:52 Mostly Sunny 77 25 52 11.1 42 42 S 13 20 30.05 1018 10 16 0.00 0.00
3:52 pm 15:52 Partly Cloudy 77 25 52 11.1 42 42 S 13 20 30.03 1017 10 16 0.00 0.00
4:52 pm 16:52 Mostly Cloudy 78 25.6 53 11.7 42 42 S 14 22 30.03 1017 10 16 0.00 0.00
5:52 pm 17:52 Partly Cloudy 76 24.4 52 11.1 43 43 S 10 17 30.02 1017 10 16 0.00 0.00
6:52 pm 18:52 Mostly Sunny 76 24.4 52 11.1 43 43 S 8 13 30.02 1017 10 16 0.00 0.00
7:52 pm 19:52 Mostly Sunny 74 23.3 53 11.7 48 48 S 10 17 30.02 1017 10 16 0.00 0.00
8:52 pm 20:52 Partly Cloudy 70 21.1 55 12.8 59 59 S 8 13 30.02 1017 10 16 0.00 0.00
9:52 pm 21:52 Mostly Clear 68 20 55 12.8 63 63 S 8 13 30.03 1017 10 16 0.00 0.00
10:52 pm 22:52 Clear 67 19.4 55 12.8 66 66 S 9 15 30.03 1017 10 16 0.00 0.00
11:52 pm 23:52 Mostly Clear 66 18.9 55 12.8 68 68 S 7 11 30.01 1016 10 16 0.00 0.00

Powered by AerisWeather